TimeAST,TemperatureF,Dew PointF,Humidity,Sea Level PressureIn,VisibilityMPH,Wind Direction,Wind SpeedMPH,Gust SpeedMPH,PrecipitationIn,Events,Conditions,WindDirDegrees,DateUTC
12:00 AM,77.0,69.8,78,29.83,6.2,ENE,3.5,-,N/A,,Partly Cloudy,60,2012-11-21 04:00:00
1:00 AM,77.0,69.8,78,29.83,6.2,ENE,5.8,-,N/A,,Scattered Clouds,60,2012-11-21 05:00:00
2:00 AM,78.8,75.2,89,29.83,6.2,NE,5.8,-,N/A,,Scattered Clouds,40,2012-11-21 06:00:00
4:00 AM,77.0,71.6,83,29.83,6.2,NNE,5.8,-,N/A,,Scattered Clouds,30,2012-11-21 08:00:00
5:00 AM,77.0,71.6,83,29.83,6.2,Calm,Calm,-,N/A,,Scattered Clouds,0,2012-11-21 09:00:00
6:00 AM,77.0,71.6,83,29.86,6.2,Calm,Calm,-,N/A,,Mostly Cloudy,0,2012-11-21 10:00:00
7:00 AM,78.8,73.4,83,29.86,6.2,Calm,Calm,-,N/A,,Scattered Clouds,0,2012-11-21 11:00:00
8:00 AM,82.4,71.6,70,29.89,6.2,East,9.2,-,N/A,,Mostly Cloudy,80,2012-11-21 12:00:00
9:00 AM,82.4,75.2,79,29.92,6.2,ENE,4.6,-,N/A,,Mostly Cloudy,70,2012-11-21 13:00:00
10:00 AM,87.8,77.0,70,29.92,6.2,East,17.3,-,N/A,,Scattered Clouds,80,2012-11-21 14:00:00
11:00 AM,87.8,77.0,70,29.89,6.2,East,19.6,-,N/A,,Partly Cloudy,90,2012-11-21 15:00:00
12:00 PM,87.8,77.0,70,29.86,6.2,East,17.3,-,N/A,,Mostly Cloudy,100,2012-11-21 16:00:00
1:00 PM,86.0,75.2,70,29.86,6.2,ESE,17.3,-,N/A,,Scattered Clouds,110,2012-11-21 17:00:00
2:00 PM,87.8,78.8,75,29.80,6.2,ESE,18.4,-,N/A,,Partly Cloudy,120,2012-11-21 18:00:00
3:00 PM,86.0,78.8,79,29.80,6.2,ESE,18.4,-,N/A,,Partly Cloudy,120,2012-11-21 19:00:00
4:00 PM,84.2,77.0,79,29.80,6.2,ESE,16.1,-,N/A,,Partly Cloudy,120,2012-11-21 20:00:00
5:00 PM,84.2,77.0,79,29.80,6.2,ESE,16.1,-,N/A,,Partly Cloudy,120,2012-11-21 21:00:00
6:00 PM,82.4,73.4,74,29.83,6.2,ESE,18.4,-,N/A,,Partly Cloudy,120,2012-11-21 22:00:00
7:00 PM,82.4,73.4,74,29.83,6.2,ESE,12.7,-,N/A,,Partly Cloudy,110,2012-11-21 23:00:00
8:00 PM,82.4,77.0,84,29.86,6.2,East,11.5,-,N/A,,Scattered Clouds,100,2012-11-22 00:00:00
9:00 PM,82.4,75.2,79,29.86,6.2,ESE,15.0,-,N/A,,Scattered Clouds,120,2012-11-22 01:00:00
11:00 PM,80.6,73.4,79,29.86,6.2,East,11.5,-,N/A,,Scattered Clouds,90,2012-11-22 03:00:00